GFSSE_con_mucape_159.txt.gz
CAPE
59 170 724 1285 1905 1952 2420 2984 2951 2738 2494 2626 2650 2400 2428 2194 1851 1866 2095 2165 2026 1977 1721 1503 1916 1930 1743 1946 1886 1748 1750 1724 1773 1887 1718 1514 1452 1286 1694 1563 788 1071 1571
176 219 1208 1803 2259 2465 2536 2736 2652 2768 2344 2443 2529 2527 2383 2356 2059 2087 2152 2241 2206 1550 1219 1009 1688 2112 1954 1812 1581 1801 1772 1360 1447 1637 1889 1625 1516 1425 1324 1331 1547 1441 1415
302 548 847 2539 2660 2233 2629 2756 2474 2428 1953 1950 2161 2315 2243 2550 2209 2244 2249 2054 2150 1447 1204 1122 1139 1792 1788 1729 1687 1703 1696 1414 1332 1632 1702 1236 1118 1382 856 1404 1484 937 1393
388 599 723 2187 2646 2427 2562 2857 2910 2551 2090 2250 2233 2060 2371 2424 2468 2462 2361 2065 1572 1282 1678 1695 1600 1770 1752 1660 1473 1817 1811 1675 1600 1559 1236 1043 548 1676 1416 1636 1071 956 1021
710 634 1000 2135 2294 2020 2241 2849 2816 2581 2286 2098 2094 2301 2054 1919 1820 1165 850 547 435 552 1057 1215 1513 1510 1474 1343 1243 1168 1170 1311 1402 981 872 590 461 904 998 1127 1489 1367 1197
978 589 1694 1963 1286 1943 2133 2441 2485 2437 2660 2388 2298 2478 1770 1215 1005 944 1537 2038 1992 1380 1523 1644 1495 1546 1468 1359 1334 1309 1530 1502 1508 1442 1511 860 238 940 1456 1536 1677 1187 565
1215 733 909 2482 1828 1728 2130 2446 2341 2408 2423 2488 2251 2122 1840 1338 989 1505 2305 2108 1473 1479 1561 1732 1676 1574 1285 1241 1264 1378 1304 1357 1481 1365 1523 1416 906 391 1086 1630 1610 967 487
1011 767 1342 2312 2128 1733 2047 2194 2189 2325 2378 2357 2413 2533 1873 1274 1196 976 1402 2086 1806 1678 2128 1825 1679 1693 1783 1772 1844 1774 1423 1360 989 1261 1475 1602 1261 635 848 808 859 1219 447
1116 994 1623 1555 1676 1632 1904 1992 2293 2222 2045 2086 2173 2160 2161 2078 1803 1764 1617 1374 1498 1622 1628 1865 1937 1938 1902 1747 1774 1878 1765 1675 1146 1157 1324 1514 1717 1293 1321 1925 1130 1126 488
1078 1447 1755 1985 1554 1228 1425 2132 2252 1933 1568 1554 1617 1779 2078 2139 1982 1973 2112 2109 1872 1708 1616 1755 2030 2167 2146 2033 1869 1688 1758 1541 830 895 1110 1267 1456 1814 1655 1851 1671 898 670
811 1387 1692 1536 1913 1831 1832 2003 1722 1670 1237 1427 1736 1993 2006 1776 1812 1861 1751 1744 1625 1693 1868 1861 1818 2153 2109 2308 2198 2084 1747 838 1202 1039 1152 933 1274 1614 1638 1946 2421 1472 1062
405 864 1062 1288 1439 1500 1373 2122 2014 1445 924 1251 1401 1843 1639 1730 1843 1854 2084 2423 2259 2028 1943 1956 1977 1898 1573 1230 1510 1630 1285 1577 1451 1404 1309 1203 1407 1548 1549 2157 2664 2443 1791
794 897 1086 1293 1337 1248 1443 1772 1736 1512 1406 1487 1874 1806 1473 1460 1684 1767 1821 1806 2168 1800 1695 1735 1768 1711 1626 1190 860 1601 1857 1800 1565 1397 1219 1490 2156 1940 1949 2322 2677 2986 2647
1015 1063 993 1130 1632 1242 1262 1519 1353 1421 1460 1275 1183 1308 1085 1003 1526 1823 1920 1980 2066 2044 2205 2109 2081 2047 1781 1543 1657 1534 1372 1229 1558 1473 1323 1437 1700 2339 2354 2756 2503 2739 2649
1048 1131 1229 1193 1543 1738 1274 980 1214 1122 746 626 805 816 946 878 1356 1642 1796 1947 1776 1791 2047 2487 2230 2123 1942 1783 1754 1561 1239 1017 733 1158 1412 1584 1755 2108 2532 2400 2644 2443 2490
957 1091 1166 1245 1318 1651 1329 1363 1127 1109 1122 1492 1513 1685 2043 1824 1939 1906 1883 1806 1874 1922 1929 1941 2023 2003 2047 1615 1347 1267 1124 848 944 1102 1349 1571 1709 1885 2378 2702 2988 2691 2731
1086 1050 1094 1129 1133 1291 1260 1129 1143 1462 1455 1519 1757 2244 2378 2563 2523 2672 2377 2213 1894 1967 2064 2095 2180 2063 2063 1780 1760 1631 1406 1384 1396 1522 1617 1441 1147 869 957 2167 2504 2726 2680
1261 1233 1147 921 949 1182 1116 1151 1363 1721 1920 2044 2148 2230 2398 2520 2457 2459 2359 2346 2013 1981 2110 2393 2322 2282 1986 1400 1371 1346 1338 1294 1323 1303 1231 1133 979 777 756 1373 1953 2412 2867
1498 1584 1558 1546 1363 1292 1351 1355 1693 1985 2299 2351 2320 2304 2062 2102 2360 2553 2374 2322 2386 2134 2260 2485 2443 2312 2006 1605 1251 652 797 685 695 600 851 814 927 823 753 867 1377 1771 1971
1534 1644 1649 1730 1778 1734 1575 1774 1810 1985 2267 2188 2050 2132 2141 2145 2551 2636 2346 2263 2456 2485 2602 2577 2590 2380 2137 1675 1149 513 430 159 290 791 750 495 400 713 925 1218 1225 1122 1743
1457 1639 1721 1791 2029 1965 1810 1740 1832 1967 2182 2342 2125 2202 2219 2358 2548 2399 1829 1943 2047 2204 2642 2635 2497 2398 1693 1315 785 49 0 98 73 378 1 122 100 257 803 1056 1340 1220 976
1328 1648 1828 1853 2078 2124 1971 1948 1937 1996 2032 2274 2245 2297 2260 2445 2676 2435 2595 2321 2519 2618 2757 2784 2468 1964 1473 1041 311 11 0 0 235 0 139 1 283 36 1 129 336 144 564
1354 1566 1741 1976 2012 2117 2095 2074 2146 2153 2178 2082 2037 2102 2343 2606 2834 2828 2558 2703 2603 2421 1527 1651 1497 1205 443 396 487 101 0 0 7 0 0 41 75 54 44 0 0 1 80
1328 1527 1861 2011 2237 2056 2215 2117 2348 2257 2207 1981 2045 2011 2410 2578 2782 2765 2531 2208 1748 1172 854 779 771 666 626 29 142 271 350 252 16 7 0 11 11 3 0 0 0 0 0
1151 1398 1680 2189 2406 2497 2188 2489 2422 2428 2211 2200 2337 2556 2815 2071 1631 1783 1790 1660 1181 1023 739 393 217 287 174 261 88 93 104 48 97 92 15 0 0 0 0 0 0 0 0
1102 1286 1569 2175 2773 2450 2145 2158 2597 2978 2796 2406 2577 2490 2415 1669 1621 1761 1624 1438 1002 489 154 37 169 236 295 240 228 191 56 22 12 46 36 9 0 0 0 0 0 0 0

GFSSE_con_mucape_162.txt.gz
CAPE
51 200 843 2180 2787 3016 2968 2872 2650 2417 2427 2343 2505 2096 1851 1655 1880 2236 2221 2193 2130 1833 1776 2100 1960 1952 2172 2024 1831 1837 1867 1953 2032 1760 1494 1540 1422 1723 1676 909 992 1002 1701
132 228 1009 2015 2282 2631 2573 2711 2425 2562 2356 2152 2268 2262 2185 2161 2200 2195 2490 2222 1624 1293 1244 1886 2325 2063 1847 1696 1943 1788 1566 1641 1843 1917 1564 1468 1559 1382 1296 1431 1821 1471 1500
147 608 531 2058 2235 2038 2195 2373 2111 2130 1882 2109 2373 2157 2427 2355 2294 2349 2241 2271 1476 1412 1114 1546 1936 1759 1894 1877 1750 1753 1462 1410 1680 1823 1749 452 657 1086 1219 1733 1213 1159 1105
381 700 623 2371 2675 2244 2350 2511 2534 2116 1777 1903 2008 2495 2404 2388 2354 2295 2181 1738 1438 1881 1786 1655 1803 1908 1649 1624 1881 1817 1810 1554 1506 1455 906 537 479 1524 1727 1601 989 885 1468
302 515 1296 2642 2590 2057 2398 2884 2780 2209 2136 2301 2174 2142 2064 1969 1391 1025 616 516 829 1307 1271 1586 1578 1522 1483 1398 1342 1228 1146 1322 1387 1261 643 444 330 874 1065 923 1652 1555 1270
290 347 1521 2213 2055 2143 2384 2638 2512 2510 2452 2561 2334 1425 1134 996 785 1462 1900 1661 1030 1325 1584 1547 1641 1522 1391 1351 1301 1307 1576 1671 1513 1140 974 969 304 592 1326 1416 1501 1245 486
208 94 536 2140 2017 2217 2320 2247 2183 2357 2436 2263 2277 1674 1158 997 1631 2401 1852 1342 1579 1706 1787 1666 1614 1390 1188 1110 1160 1275 1169 1226 1415 1089 1417 1403 1022 481 1067 1719 1844 975 548
267 94 367 1700 1848 2189 2350 2316 2373 2351 2202 2473 2593 1417 1256 1013 1105 1596 2099 1842 1522 1966 1604 1511 1496 1506 1646 1692 1787 1715 1423 1454 1159 1011 1289 1563 1352 534 873 910 917 1128 734
580 1098 668 751 1322 2063 2002 2217 2375 2245 2281 2360 2120 2095 1938 1691 1627 1442 1255 1286 1502 1561 1707 1863 1826 1824 1776 1637 1641 1756 1712 1580 1128 853 1167 1382 1738 1358 1295 1546 1564 1205 1060
844 978 1661 1094 938 1101 1499 2317 2074 1603 1440 1535 1799 2024 2064 1821 1765 1670 1879 1869 1748 1567 1499 1602 1803 1924 1991 1854 1703 1602 1544 1525 972 883 1204 1688 1952 1913 1855 1525 1998 1450 902
893 1539 1534 1273 1406 1534 1675 1677 1568 1239 1435 1684 1989 2048 1865 1715 1891 1937 1241 1673 1626 1540 1614 1723 1662 1930 2230 2205 2169 1863 1703 701 851 1076 874 1639 1314 1704 2035 1814 2213 2050 1249
808 1243 1377 1247 1169 1169 1335 1394 910 939 1325 1730 1893 2323 1781 2150 2113 1657 1830 2115 2097 1864 1920 1927 1777 1873 1695 1256 1111 1928 1179 993 1147 995 900 1633 1363 1679 1886 2252 2538 2600 1937
674 951 999 1130 1199 818 1429 1580 1042 853 1158 1619 1944 2009 1729 1894 2125 2008 1930 1940 1911 1723 1603 1953 1920 1774 1776 1733 1499 1409 1389 1449 1369 1189 1430 1446 1670 1847 2024 2657 2652 2613 2543
655 945 830 784 1262 938 1641 1694 1108 723 1076 1222 738 1193 945 1263 1780 2108 2122 2154 2109 1990 1854 1623 1537 1842 1711 1909 1721 1739 1574 1433 1074 1121 1442 1588 1543 1594 1715 2780 3090 2792 2669
1161 1124 1015 831 1179 1192 1677 1516 1480 1220 819 509 458 414 715 1060 1480 1974 2152 2165 2117 1855 1917 1997 1979 2035 2165 1881 1818 1800 1614 1560 1458 1318 1107 2523 1953 2162 1826 2249 2967 3053 2748
1519 1558 1480 1290 1301 1405 1210 1313 1470 1235 666 697 417 961 1826 2090 2168 2237 2440 2172 1891 1899 1803 2127 2716 2283 1861 1152 643 874 1592 1786 1495 1477 1410 1452 2517 2231 2184 1762 2811 3359 3285
1510 1590 1674 1760 1523 1610 1567 1206 884 541 772 1122 1329 2095 2543 2802 2669 3030 2510 2304 1664 2211 2861 1984 1816 1183 928 494 383 230 626 1051 1159 1511 1754 1636 1567 2374 2106 1689 2060 2629 3006
1506 1643 1634 1375 1443 1626 1603 1318 980 1131 1627 1430 1753 1962 2404 2968 3067 2996 2103 1551 1840 1911 1458 1361 1175 1103 774 712 652 363 175 142 218 698 952 1029 1166 1324 1855 1784 1700 1939 2276
1570 1666 1747 1694 1496 1641 1747 1566 1594 1864 2332 2170 2251 2190 2325 2571 2494 2997 1861 1589 2184 1112 1122 1480 1368 1339 1166 742 312 193 99 15 0 0 36 557 872 894 1000 875 1628 1740 1467
1586 1895 1905 1945 1978 1937 1817 2008 1706 1933 2340 2477 2415 2155 2395 2366 2433 2734 1897 2287 2457 1264 1261 2037 2408 1662 1196 573 322 67 2 0 20 34 96 34 12 404 416 955 1326 1368 2163
1467 1785 2139 2200 2405 2406 2042 1799 1887 2026 2139 2346 2264 2241 2689 2489 2485 2858 2348 1918 2388 2354 3132 2948 1998 806 535 590 155 0 0 0 43 6 0 0 0 7 206 114 581 693 638
1436 1871 2147 2305 2588 2686 2193 1995 1908 1876 1685 1733 1874 2328 2796 2667 2539 2748 3090 2783 2691 2812 2767 2660 1841 484 0 112 106 2 0 0 80 0 31 31 151 116 72 49 99 75 102
1411 1897 2251 2541 2460 2738 2370 2352 2537 2689 2734 2320 2280 2199 2216 2658 2792 3092 3469 3486 3498 3450 2087 1710 684 402 13 0 85 109 55 0 79 16 3 17 8 25 23 7 0 0 5
1472 1744 2292 2689 2806 2724 2920 3234 3366 2124 1979 2121 2374 2010 2142 2601 2781 3176 3659 3533 3347 1900 1523 978 267 310 273 0 34 45 154 307 193 169 7 2 0 1 0 0 0 0 0
1430 1638 2053 2701 3358 3480 3413 3450 2951 2938 2122 2531 2535 2705 3042 2960 3166 2852 2929 2466 1973 1689 1319 657 300 209 44 337 78 85 82 49 34 26 0 0 0 0 0 0 0 0 0
1304 1504 1817 3019 4157 3510 3387 3327 3475 3574 3222 2552 2671 2717 2600 2429 2532 2624 2312 2109 1763 1132 667 230 185 310 518 530 393 144 26 10 0 1 5 0 0 0 0 0 0 0 0

GFSSE_con_mucape_165.txt.gz
CAPE
150 674 1175 2187 2491 2554 2313 2198 2326 2199 2114 2127 2007 1680 1807 2108 2310 2355 2373 2312 1953 2359 2342 2021 2239 2454 2109 1941 1961 1985 2054 2149 1808 1633 1631 1796 1803 1770 1160 968 1146 1014 1667
189 431 1483 2388 2960 2542 2315 2293 2469 2376 2105 2364 2481 2009 1893 2051 2166 2213 1974 1805 1354 1847 2142 2070 2265 1874 1836 2134 1819 1765 1850 1931 1988 1718 1540 1457 1521 1339 1238 1679 1527 1433 1771
234 349 824 2314 2195 2302 2309 2244 2178 2149 2323 2381 2133 2321 2165 2055 1954 2238 1827 1612 1756 1225 1970 2120 1810 2104 2116 1842 1811 1542 1487 1686 1897 1821 2070 1421 566 1215 1403 1450 958 1149 1364
590 581 683 2162 2671 2112 1999 1878 1851 1636 1771 2027 1932 2262 2326 2110 2147 2151 1727 1528 2099 1708 1793 1953 2076 1497 1795 1893 1853 1919 1675 1495 1401 1538 1448 794 793 1461 2091 1047 873 1522 1602
426 578 1232 2278 2056 1567 1919 2418 2406 2218 1970 1931 2234 2160 1948 1481 981 526 463 998 1447 1328 1749 1682 1517 1607 1558 1449 1393 1246 1214 1412 1642 1758 526 55 795 681 988 762 1672 1337 1420
505 360 1991 2357 2050 2133 2354 2289 2217 2256 2384 1969 1170 1024 948 752 1619 1921 1402 938 1397 1611 1725 1771 1712 1490 1394 1354 1289 1350 1371 1684 2014 2158 613 468 351 971 1179 1341 1634 1164 285
341 394 1236 2443 1845 2238 2337 2167 2160 2151 2115 2499 1439 1064 986 1870 2528 1591 1220 1739 1885 1807 1841 1718 1612 1367 1151 1124 1158 1264 1305 1504 1647 818 784 577 1026 1086 1191 1593 2018 988 436
83 111 520 1997 2200 2312 2278 2526 2157 2258 2519 2186 1285 1123 898 1373 1692 1957 1815 1407 1665 1575 1458 1485 1443 1429 1459 1437 1490 1566 1601 1655 1198 638 632 1579 1275 1133 1019 1096 1125 1171 950
97 79 401 1012 1798 2089 2079 2501 2488 2622 2425 2089 1977 1683 1453 1279 1117 1033 1085 1227 1319 1453 1596 1739 1692 1680 1640 1538 1476 1544 1590 1668 1259 1120 425 1965 2118 1502 1207 1168 1365 1195 1327
988 300 566 725 1318 1264 1532 2068 1778 1568 1542 1917 1943 1905 1842 1862 1747 1662 1684 1541 1534 1508 1505 1645 1751 1828 1860 1747 1578 1431 1529 1895 899 959 1283 1779 2806 2020 1882 1518 1844 1777 1397
931 794 904 984 1300 1657 1092 1388 1452 1549 1730 1853 1895 2030 2365 1873 2079 1965 1609 1502 1591 1624 1730 1779 1730 1830 2310 2621 2363 2219 1497 625 874 728 1295 2721 2517 2143 2223 2258 1879 2312 1745
1199 1251 960 1077 1243 1569 761 783 1136 1117 1808 2184 2493 1748 1883 1971 1234 1327 1578 1701 1858 2027 1953 2206 2358 2580 2233 1756 1883 2671 1648 1125 1070 1050 1478 2692 1968 1923 2023 2243 2640 2683 2394
967 977 1105 1153 1148 1377 1861 938 1075 1158 1360 2053 2056 2360 2005 2084 2209 2599 1889 2488 2006 2385 1837 1939 2016 1796 1958 1747 2147 1403 1510 1148 1237 1602 1626 2251 2357 1988 2032 2479 2808 2545 2455
1017 1014 983 1144 1249 1118 1603 1258 901 742 971 947 1023 1493 1600 1628 1856 2082 2399 2376 2558 2083 2405 1412 1953 1902 1706 1768 1678 1229 1580 1803 1264 1236 1357 3292 2377 2155 1782 2352 3106 3368 2996
910 1053 934 1103 1632 1288 1974 1617 1391 854 731 713 647 1009 1082 1364 1645 2604 2436 1331 1096 675 1208 1247 1299 1537 1103 884 1070 899 783 1340 1522 1393 1225 3088 2966 2558 2454 1926 2595 3214 3518
1054 1165 1088 1007 1410 1480 1825 2115 2033 1669 942 661 253 588 1766 2003 3453 2100 2116 1827 781 746 923 1186 1419 1479 837 389 220 156 158 288 845 1832 1586 1885 3089 2848 2876 2645 2500 2869 3312
1460 1452 1345 1244 964 1366 1455 1488 1801 1081 557 446 743 1578 2233 2558 2711 2762 2589 1283 916 1488 1984 2188 1551 831 669 446 471 281 169 44 26 245 710 1550 2375 3145 3165 2928 2748 2518 2503
1639 1763 1695 1446 1293 1373 1522 1301 984 598 731 1194 1079 1451 2306 2549 2608 2584 1712 1060 1858 1595 942 1080 1042 982 930 873 958 105 170 75 18 22 1 158 508 668 2401 2902 2423 2101 2132
1714 1930 1948 1893 1658 1754 1817 1676 1336 1298 1755 1520 1360 2065 3018 2098 1973 2118 1399 1587 1523 963 993 1451 1059 1464 1221 764 284 67 195 0 0 0 29 91 172 389 267 1879 2582 2355 2512
1656 1881 2076 2073 2055 2047 2030 2130 1674 1596 1797 1653 1632 1680 2474 2058 1915 1828 1645 1653 1966 1033 1088 2089 2088 1402 625 470 313 89 135 1 48 12 10 1 0 6 15 452 689 906 2643
1510 1882 2152 2203 3234 2508 2126 2015 1835 1471 1569 1505 1609 1811 2087 2229 2004 2144 1706 1515 1810 2099 2863 2651 2211 1877 51 194 50 0 0 0 69 63 0 23 9 72 78 91 54 214 582
1301 1772 2248 2499 3324 2873 2316 2364 1952 1910 1302 1411 1464 2069 2395 2417 2361 2442 2695 2528 2069 2087 2874 2668 2240 865 62 44 35 120 43 0 13 11 4 0 51 0 6 58 212 537 269
1106 1542 2459 3036 3338 3523 3520 2598 2358 2281 2198 1737 1768 1808 2251 2586 2687 2707 2813 3217 3472 3190 2052 2482 1537 892 52 72 108 235 89 0 45 78 165 2 49 0 0 15 15 166 261
897 1234 2493 2951 3683 3647 4065 2771 3541 2358 1856 1585 1995 1901 1932 2191 2447 2677 3286 3424 3548 3122 2647 1931 945 752 1250 201 22 56 994 416 172 83 7 50 111 220 135 0 0 1 20
737 904 1507 3475 4156 4281 4201 3750 3114 3155 1970 1737 1864 3353 3988 3392 2984 3316 3642 3265 3504 2847 3189 1859 775 532 248 358 199 421 557 48 311 1 0 0 0 0 0 0 1 1 16
681 866 1247 3528 4489 4575 4711 4538 4716 4461 3563 2272 2405 2232 2131 2335 2841 3778 3317 3511 3174 2444 1903 1127 640 370 963 763 692 699 45 0 0 0 0 7 0 0 0 3 17 21 17

GFSSE_con_mucape_168.txt.gz
CAPE
231 831 1470 2135 2123 2162 2220 2627 2390 2494 2294 2552 2558 2706 2789 3011 2615 2426 2660 2710 1988 2447 2230 2406 2214 2162 1981 2132 2126 2157 2183 1791 1810 1630 1984 1855 1815 1251 1172 1002 1133 1132 1583
303 852 1596 2784 2754 2221 2237 2693 2554 2278 2493 2643 2459 2355 2526 2540 2052 1965 2367 1878 2212 2207 2228 2221 2020 1867 2127 1779 1825 2032 2061 2011 1804 1644 1593 1379 1481 1354 1483 1190 2073 1620 1491
347 746 1091 2628 2374 2158 2250 2633 2608 2134 2427 2570 2503 2467 2107 1839 1966 1819 1795 1639 1679 2166 1984 1894 2202 2243 1808 1885 1562 1535 1596 1837 2110 2010 1524 1186 999 1361 1663 900 1242 1411 1307
375 594 728 2645 2529 2348 2194 2499 2283 2088 2218 2017 2291 2354 2490 2192 2032 1644 1751 2117 2203 1701 2012 2084 1430 1797 1835 1758 1871 1771 1571 1500 1325 1518 1509 1052 444 2042 1570 922 1557 1474 1475
395 683 1491 2558 2320 1947 2223 2535 2515 2327 2144 2149 2207 2045 1980 1583 1166 917 1077 1414 1294 1764 1683 1470 1596 1591 1600 1476 1315 1279 1451 1822 1827 1925 1566 981 670 1351 1115 1408 1089 1534 1422
411 622 1947 2332 2027 2106 2350 2306 2190 2493 2272 1787 1619 1521 1475 1670 1649 1278 932 1356 1602 1846 1860 1813 1658 1510 1396 1239 1210 1270 1494 2020 1761 1754 1855 854 200 1558 1419 1714 1634 677 1171
263 326 1311 2596 2648 2165 2136 2451 2357 2559 2425 1812 1492 1277 2036 2511 1494 1543 2120 2155 1775 1855 1718 1670 1486 1277 1082 1057 1167 1553 2358 1785 1537 1384 1582 632 1012 2105 1418 1514 1736 913 198
191 439 1168 2217 2676 2648 2122 2015 2246 2422 1836 1334 1087 1037 1729 1867 2052 1760 1181 1381 1472 1358 1384 1319 1254 1226 1256 1280 1299 1732 2526 2164 1008 868 1424 914 1421 2112 1612 1631 1791 1160 692
55 333 1184 1396 2079 2175 2136 2206 2512 2533 2309 1626 1179 1175 1008 1300 1502 1522 1604 1543 1418 1473 1504 1542 1534 1607 1647 1728 1880 2133 2423 2315 1374 737 1450 1186 2121 2187 1769 1311 1283 1141 1430
89 416 1284 1689 1583 1381 1925 2170 2188 1979 1846 1854 1869 1743 1628 1441 1363 1340 1852 1788 1505 1294 1349 1486 1705 2218 2409 2470 2587 2618 2611 2473 822 568 1754 1582 2424 2648 1974 1598 1862 1789 1698
273 804 1035 1764 2224 2377 1656 1517 1798 1509 1746 1910 2005 1812 2180 2311 1908 1986 1998 2134 1711 1771 1914 1850 1955 2141 2093 2328 2782 3218 3011 1059 735 1113 1459 2280 2791 3086 2618 2530 2375 2693 2430
851 1057 880 1077 1509 1986 568 1557 1754 1436 1666 2376 2713 2174 2426 2446 2319 1986 1460 2388 2546 2768 2920 2528 1772 1799 1554 1753 2171 2868 2096 1814 1132 1180 885 2680 2943 3301 3069 3136 3083 2883 2811
991 1226 1097 1437 2218 1691 790 1544 1730 1787 2158 2947 2563 3315 3478 2930 3384 1686 1166 1550 2314 2785 2416 2432 2362 1843 2236 2047 1871 1258 1884 1482 1266 1473 1755 2897 3279 3277 3029 3111 3149 3179 3006
1207 1155 867 1765 2452 1785 1510 1321 1972 1464 2274 1873 2800 2509 3367 2628 3516 3729 2095 2809 3370 3010 2806 1716 1910 2216 1656 1492 1688 1803 1650 1384 1298 1274 1219 3399 3262 3304 2967 3196 2949 3354 3340
1368 1321 1157 2205 2769 2970 3217 3270 3065 2165 1657 1773 2270 2405 2341 2782 3530 2089 2959 3154 3287 2643 2306 1889 1879 2030 1831 1247 1927 817 395 335 850 1688 1312 3291 2886 2775 2936 3140 2962 2908 3193
1375 1492 1541 1937 2646 2720 3027 3752 3749 3105 2698 1639 1520 2138 2914 3154 3352 3396 3150 3258 1865 2087 1911 2378 2703 2480 2383 1656 1151 1121 853 530 238 726 1365 1888 3291 2762 3281 3323 3093 2763 2796
1316 1621 1429 1585 2113 2590 2915 3006 3228 3114 1481 1809 1731 2492 3031 3342 3478 4259 3032 2956 2261 2458 2821 3509 3438 2420 1980 1389 1773 580 643 483 261 539 311 95 762 3444 3333 3194 3110 2747 2597
1383 1969 1847 1035 1433 2079 2392 2764 2399 1897 1901 1871 2288 2775 3482 3733 3564 4173 2590 2200 2429 2730 2689 2704 1745 1949 1951 1487 1759 1196 833 683 658 337 262 394 246 155 2663 3368 2984 2871 2698
2393 2514 2805 2396 1796 1877 2661 2217 2414 2270 2412 2153 2502 2437 3051 3234 2584 3093 2784 3203 2467 2533 2715 2216 2686 2756 1442 1528 757 242 819 243 468 135 311 549 581 494 589 2095 3017 2557 2746
2459 2570 2917 3131 3343 2838 2507 2889 2439 1759 2019 2344 2279 2405 2733 2954 2758 3102 2444 3764 2507 2760 3254 3266 4031 3240 1582 1259 210 165 608 498 538 509 561 111 338 255 308 642 1757 1510 2486
1955 2849 2891 3186 3868 3293 2823 2389 2182 2097 2159 2054 2049 3367 4442 3048 3032 3795 2809 2868 3334 3363 3317 3490 3432 2518 1362 1202 336 356 157 543 625 40 38 167 200 625 314 508 1419 401 223
2113 2571 3140 3146 3863 3236 2946 2689 2690 2267 1958 1857 2347 3804 3288 3364 3536 3562 3546 3307 3623 3469 4130 3092 3128 2133 1354 790 891 499 604 374 14 12 443 173 202 45 46 28 242 520 786
1839 2449 2899 3156 3261 3164 3117 2999 2930 3858 3070 3128 3292 3436 3453 3450 3901 4212 4092 4282 4532 4461 3368 3383 2726 1665 776 851 989 645 618 188 227 488 213 140 663 190 85 124 114 162 810
1498 2181 2781 3202 3469 3602 3141 3327 2916 2115 2314 2208 2944 3071 2515 3672 3460 3619 4175 4408 4804 4069 3546 2865 2317 1499 1496 517 784 963 993 923 496 187 258 127 178 3 166 7 0 0 28
1124 1722 2126 3246 3297 3448 3450 3149 3198 3006 2356 2270 2406 2994 4162 4249 3778 3411 4018 4161 4552 4233 4110 2673 1834 1223 928 1378 920 737 859 533 354 16 0 0 0 0 0 0 0 0 5
1017 1204 1867 2985 3231 3311 3604 3285 3617 3238 2527 2863 2649 3149 3388 3303 3709 3821 3910 4407 4371 3990 2863 1911 1666 1589 1395 1313 1285 1492 682 65 5 0 0 0 0 0 0 0 1 52 23

GFSSE_con_mucape_171.txt.gz
CAPE
332 821 1986 2034 2010 2380 1823 1823 1930 1970 2057 2550 2947 3117 2888 2625 2538 2689 2455 2357 2381 2474 2434 2312 2237 2134 2017 2001 2161 2092 1741 1937 1759 2100 1761 1645 1372 1405 1378 1138 1473 1237 1680
372 1040 2309 2635 2434 2025 2124 2219 2141 2469 2195 2235 2470 2939 2587 2230 1987 1854 2440 2271 2120 2061 2288 2177 1779 1943 1721 1747 2081 2097 1981 1888 1779 1734 1462 1491 1431 1637 1450 1745 1662 1518 1583
653 1173 1898 2716 2147 1902 2291 2232 2508 2494 2255 2582 2782 2260 1958 2005 1995 1425 1265 2054 2323 1956 2068 1763 2264 1910 2098 1657 1655 1714 1882 2015 1766 1597 1446 1022 803 1727 1128 1018 1657 1399 1038
454 855 1448 2392 2677 2252 2507 2484 2615 2411 2124 2376 2289 2293 2119 2040 1824 2312 1558 1251 1787 2077 1787 1500 1771 1813 1572 1796 1836 1759 1534 1480 1320 1449 1309 810 827 1601 832 1457 1244 1454 670
489 869 1427 2436 2378 1669 1969 2508 2547 2437 2054 2263 2394 2190 1661 1085 1081 1345 1536 1273 1744 1895 1466 1413 1586 1704 1642 1409 1417 1510 1653 1722 1730 1794 1542 1021 805 1711 1239 1119 1476 1551 763
586 1334 2216 2263 1769 1980 2237 2760 2169 2346 2108 1968 1503 1221 1234 1289 1114 1071 1213 1642 1889 1717 1778 1783 1670 1497 1369 1274 1327 1754 2207 1942 1545 1238 1376 850 298 1657 1377 1751 1440 1278 1596
540 1160 1821 2737 2847 2710 2515 2578 2596 2227 1726 1703 1484 1872 2304 2289 2235 2022 2137 1777 1797 1818 1740 1634 1451 1249 1109 1148 1372 2271 2527 1940 1610 1249 1152 532 367 2194 1989 2028 1408 562 931
277 1456 1539 2547 2731 2751 2487 2289 2866 2068 1415 1173 1389 2256 2397 2331 1939 1712 1372 1451 1611 1702 1665 1516 1383 1244 1302 1378 2202 2509 2623 1880 1281 969 1026 421 1235 2407 1883 2024 1661 839 213
595 1057 1539 1964 1924 2363 2454 2751 2850 2410 1380 1416 1168 1817 1946 2029 1996 1741 2143 2178 1898 1781 1680 1603 1564 1608 1899 2469 2609 2798 2728 2151 1663 786 932 719 1983 2507 1972 2248 1834 1327 1002
729 1090 1187 1593 1728 1848 2188 2990 3107 2425 1936 1710 1264 1087 1132 1195 1236 1294 2206 1991 1901 1579 1271 1352 1677 2539 2739 2847 2958 2960 2663 2135 690 761 753 1078 1830 2249 1799 2357 2154 1957 1958
363 1042 1302 1309 1056 1516 1643 1912 2480 1928 1855 1905 1813 1801 1922 1475 1348 1374 1496 2349 2043 1824 1936 2093 1928 1610 2445 2322 2725 3045 3168 2017 670 1111 817 1526 2166 2611 2710 2686 2741 2561 1902
433 741 934 1189 1273 1016 1040 1254 1142 1233 1441 1540 1324 1169 1495 1592 1593 1897 1477 2253 2646 2887 2760 3111 2001 1884 2221 1132 1458 1549 1768 1801 1275 1081 1289 1757 2396 2617 2756 2861 2546 2740 2561
519 523 1032 1341 1633 730 581 619 1126 1027 1271 1616 1750 1885 1577 1362 1719 1423 1068 1183 1464 2364 1902 2319 2150 1757 1249 1479 1522 908 1009 1603 952 919 912 1749 2362 2576 2884 2617 2609 2743 2932
663 636 839 910 1116 1168 404 757 1184 1227 1263 1649 1435 1214 1447 1219 1618 1559 1320 1469 1840 2002 1830 1574 1532 1343 1415 1210 768 779 1044 767 795 708 1033 2439 2826 2879 2832 2879 2679 2406 2998
614 709 935 951 1109 1156 790 1844 1826 1156 1390 1469 1328 907 980 1554 1944 1720 1628 2128 2116 1906 1947 814 674 715 918 706 734 883 81 12 0 61 1050 3405 3196 2875 3252 3108 2816 2390 2619
648 666 1108 1069 949 1334 1444 2056 2004 1385 1095 975 955 928 1151 1626 2094 1921 1999 1784 1512 1179 610 829 1096 1714 1375 1042 860 262 183 79 0 0 330 1408 2720 3144 3201 3014 3117 2650 2631
689 901 963 1084 993 1089 1318 1852 1736 1721 954 669 87 817 1476 1993 1985 1924 2139 2306 1204 803 1105 1531 2029 949 552 600 313 493 15 60 0 0 0 0 38 3189 3369 3248 3301 2997 2763
831 769 988 1316 1075 1053 1319 1645 1582 1347 1114 701 478 1175 1637 1543 2025 1811 2178 2140 955 1004 1657 1156 1238 939 587 165 449 82 0 60 0 0 0 0 0 0 2217 3581 3241 2972 2772
423 862 576 815 1099 1010 1120 1261 1042 940 1073 664 831 1816 1595 1822 2174 1921 1596 1728 655 919 1768 1516 1383 1483 1030 117 76 0 0 0 15 38 7 11 16 11 63 952 3222 2978 2919
539 1157 862 758 892 898 1116 978 1264 1021 719 677 1156 1771 1755 2129 1752 1605 1429 1953 1153 946 1842 1803 2019 1926 624 194 0 5 0 7 66 6 10 6 5 57 60 20 850 1313 2533
943 1445 1572 1396 777 896 1104 1283 1332 1544 946 940 1151 1482 1429 1894 1149 1428 1043 1249 1823 1198 1865 2051 2135 1606 427 61 0 0 2 13 0 28 54 20 8 15 125 205 550 3 25
1265 1305 1556 1793 2236 1127 1612 1196 1272 1171 1451 1211 1145 1105 2125 1855 1329 2036 1557 1619 1407 2529 2265 1970 1971 1243 460 3 67 4 19 7 0 0 0 0 0 0 0 0 0 0 9
1473 1535 1453 1732 2347 1995 1707 1777 1902 1666 1317 1593 1328 1253 2113 1891 1727 1775 1904 1528 1549 2675 2238 2043 1769 1174 415 0 9 112 101 17 7 141 54 2 0 0 0 0 0 0 0
1185 1669 1738 1793 2050 2006 1891 1853 1542 1430 1757 1677 1324 1769 1975 1869 1825 2371 2463 2196 2462 2493 2785 2330 1790 1319 484 40 0 92 9 80 112 73 0 0 0 0 0 0 0 0 0
1088 1427 1827 1755 1918 2299 1757 1871 2019 1515 1430 1330 1700 1071 1584 2229 2261 2350 2405 2326 2610 3276 3036 2480 1755 1140 340 179 196 120 131 57 0 0 0 0 0 0 0 0 0 0 0
904 1366 1665 1932 1971 2160 2370 1806 1862 2075 1587 1453 1186 1689 1341 2678 2566 2354 2574 2598 2579 2856 2794 2447 1832 1329 283 426 356 249 410 8 0 0 0 0 0 0 0 0 0 0 3

GFSSE_con_mucape_174.txt.gz
CAPE
335 799 1532 2057 1863 1765 1676 1448 1582 1896 2246 2795 2890 2913 2800 2608 2374 2275 2526 2225 2483 2426 2282 2305 2201 2046 2034 2066 1838 2029 1936 2004 2186 1825 1699 1819 1682 1447 1568 1812 1367 1293 1560
472 1091 1832 2438 2056 1933 1840 1702 1796 1993 2001 2462 2754 2195 2106 2210 1927 2171 2203 2007 2245 2237 2233 1667 1733 1784 2003 2323 2209 2027 1797 1851 1801 1723 1599 1594 1557 1644 1875 1637 1471 1482 1604
912 1507 1638 2395 2284 1836 1965 2232 2218 2064 2092 2355 1946 1934 1847 1893 1114 1543 2109 2286 2174 1737 1436 2354 1954 2078 1826 1836 1847 1959 1861 1606 1414 1514 1312 1044 1698 1522 1924 1886 1627 1292 927
1016 1512 1724 2304 2479 1915 2220 2507 2462 2107 2222 1975 2173 1924 2040 1907 2113 1074 1584 1942 1907 1698 1998 1784 1773 1422 1781 1996 1946 1756 1646 1486 1401 1253 1155 994 992 1299 1213 1547 1525 1123 1398
767 1122 1592 2249 2141 1473 1656 2047 2081 2221 2496 2321 2151 2118 1567 1083 1993 1654 1186 1547 2151 1853 1314 1582 1541 1710 1587 1469 1482 1538 1655 1556 1671 1738 1539 898 934 1187 1462 1485 1687 1125 1070
797 1087 2270 1944 1450 1745 1827 2121 2239 2312 2300 1842 1347 619 530 791 1211 1231 1564 1665 1582 1567 1885 1831 1704 1445 1358 1235 1274 1482 1462 1327 1391 1125 1144 1217 1046 1657 1471 1515 1940 1703 1227
1100 1430 1438 2505 2181 1927 2161 2105 1512 1361 1388 944 1109 2109 1952 1198 1349 1587 1722 1899 1942 1953 1859 1635 1427 1249 1182 1246 1330 1706 2015 1478 1338 948 635 846 653 2428 1979 1798 1735 1807 1812
1000 1468 1841 2564 2306 2275 2195 2566 1797 1058 1047 1100 2255 2453 1701 2143 2272 2234 1870 1880 1970 1835 1791 1620 1465 1341 1300 1482 1635 2188 2050 1784 1467 1051 643 587 533 1804 2137 2491 1801 1070 1166
1289 1445 1852 1892 1916 2030 2053 2315 2035 1324 1048 1265 2141 2223 2057 1575 1146 1300 1539 1623 1522 1500 1497 1468 1591 1762 1843 2022 2294 2917 2388 1835 1645 740 970 815 781 1940 2027 2205 2025 1125 648
1077 1410 1746 1785 2015 2108 2255 2632 2745 1613 1184 1133 1390 1755 1819 1820 1694 1643 2406 2550 1934 1778 1710 1649 1741 2222 2467 2586 2735 2715 2601 2113 551 678 295 725 1334 1257 1565 2328 2278 1842 1265
923 1250 1501 1683 1792 1903 2205 2465 2702 2112 1937 1669 1340 1246 1609 995 949 1082 1529 1469 1470 1599 1721 2119 2367 2492 2441 2749 1863 2616 3227 1752 845 921 429 677 1362 1160 1698 2200 2297 2372 1964
957 1072 1376 1263 1344 1630 1632 1897 1644 1419 1551 1672 1400 1422 1420 1351 1243 1222 1640 2141 1881 2303 2545 3030 2781 2436 2194 1598 1034 1926 817 1540 1329 953 736 496 372 1315 1748 1746 2374 2463 1899
867 1030 1091 1066 1002 1331 882 1060 704 929 1208 1274 1254 1307 1154 1492 1460 1742 1690 870 1227 1848 1935 1833 2075 1884 1461 1041 1123 1248 764 688 1348 1116 1204 1568 1151 2000 1302 1912 1893 1866 2495
674 783 901 1006 1129 798 691 624 667 783 893 1344 1468 1554 1310 1327 1102 1266 1218 1172 1446 1525 1543 1628 1545 1511 1167 1047 906 923 838 699 572 632 908 2342 2427 2503 2217 1953 2018 2240 1964
433 438 902 1006 1194 708 528 452 749 941 905 1150 1506 1060 1180 1194 1273 1459 1371 1756 1746 1923 1640 1566 881 902 1086 1023 657 461 557 136 0 0 602 2594 2819 2410 2589 2449 2347 2172 2104
509 476 844 917 1052 1095 877 1055 1564 1202 1043 1133 1320 515 711 1064 1413 1528 1685 1524 1558 1420 1562 782 1093 1452 1308 454 355 170 27 0 0 0 120 1090 2976 2832 2839 2658 2695 2521 2429
403 424 597 626 967 913 1064 1695 1568 1317 1064 1188 1035 500 503 789 1405 1518 1398 1690 1244 833 832 1290 1358 495 123 66 51 144 0 1 1 0 0 0 5 1568 2796 3116 2811 2742 2630
369 519 615 656 593 688 904 1494 1592 1340 1137 609 184 516 668 1351 1616 1678 1221 1713 1737 712 1048 761 821 575 508 54 106 6 0 0 0 3 0 0 6 6 665 2726 3219 2899 2747
456 648 639 613 589 526 836 1148 1254 1178 996 789 669 815 871 1597 1242 1641 1307 1380 852 952 1074 1048 1150 1160 1040 106 4 0 0 11 58 34 34 8 9 20 8 368 1973 2991 3005
392 567 590 705 593 556 731 728 1033 912 615 572 453 700 1434 1363 1397 1601 1470 1377 1196 1246 1298 1491 1354 1326 752 113 7 0 0 6 0 3 40 47 14 1 11 74 310 1043 2395
391 551 484 582 617 595 639 524 650 873 741 493 358 541 1296 1521 1525 1296 1325 1086 1410 1498 1792 1654 1681 1615 1329 121 0 0 0 0 0 0 0 0 0 0 0 0 0 0 0
434 485 359 407 646 554 604 581 572 702 902 682 553 611 952 1355 1753 1041 1086 1066 1295 1374 2111 2024 1808 1561 1327 162 0 5 4 31 3 0 0 0 30 0 0 0 0 0 0
432 381 705 580 712 622 642 763 844 813 906 939 1112 1239 1103 1529 1517 1276 1472 1246 1174 1612 2090 1929 1717 1545 1406 369 1 64 110 67 37 4 0 0 0 0 0 0 0 0 0
644 502 848 1059 1108 729 930 807 905 1110 1088 944 858 1266 1405 1517 1709 1468 1600 1559 1470 1788 2276 2084 2086 2101 1466 792 4 132 44 3 36 1 0 0 0 0 0 0 0 0 0
888 770 776 1058 1584 1356 1076 1120 1068 1265 1384 1544 1540 1417 1225 1723 1858 1560 1480 1656 1903 1929 2049 2290 2480 2110 1631 1230 203 160 66 191 0 0 0 0 0 0 0 0 0 0 0
972 991 857 928 1094 1633 1580 1357 1311 1265 1192 1179 1426 1436 1445 1188 1730 1561 1710 1977 1997 1908 2540 2879 2721 2337 1816 1057 386 303 459 185 21 0 0 0 0 0 0 0 0 0 0